Location: Aurora Center
(43.5271°N, 98.5894°W)
Time: 16:46:23
(UTC-05:00)

Envisat - Pass Details

Date: 18 June 2024
Orbit: 762 x 764 km, 98.3° (Epoch: 12 July)

Event Time Altitude Azimuth Distance (km) Brightness Sun altitude
Rises 05:11:13 0° 10° (N) 3,236 7.2 -6.8°
Reaches altitude 10° 05:13:32 10° 8° (N) 2,305 6.3 -6.5°
Maximum altitude 05:18:34 66° 287° (WNW) 832 3.1 -5.8°
Drops below altitude 10° 05:23:34 10° 206° (SSW) 2,288 4.9 -5.1°
Enters shadow 05:25:19 - 204° (SSW) 2,990 5.5 -4.9°
